GW2918 Weather Reports


time (UTC)temp
F
wind
direction
speed
knots
gust
knots
rain 1hr
in
rain 24hr
in
rain mn
in
humidity
%
barometer
mb
20260509211941 52 201 2.6 7.0 0.00 0.35 0.35 96 1008.8
20260509210939 52 225 2.6 4.3 0.00 0.35 0.35 97 1008.9
20260509205938 51 32 1.7 4.3 0.00 0.35 0.35 98 1008.8
20260509204935 51 258 1.7 5.2 0.00 0.35 0.35 98 1008.8
20260509203934 51 180 1.7 9.6 0.00 0.35 0.35 98 1008.8
20260509202932 51 163 1.7 9.6 0.00 0.35 0.35 99 1008.9
20260509201930 50 208 2.6 10.4 0.00 0.35 0.35 99 1008.8
20260509200928 50 214 5.2 13.0 0.00 0.35 0.35 99 1008.8
20260509195925 50 221 5.2 9.6 0.00 0.35 0.35 99 1009.0
20260509194920 50 200 7.0 9.6 0.00 0.35 0.35 99 1008.9
20260509193919 50 228 7.0 12.2 0.00 0.35 0.35 99 1009.1
20260509192915 50 111 1.7 11.3 0.05 0.35 0.35 99 1009.1
20260509191912 49 235 4.3 8.7 0.00 0.34 0.34 99 1009.3
20260509190910 49 224 2.6 9.6 0.07 0.34 0.34 99 1009.3
20260509185905 49 212 2.6 7.8 0.05 0.33 0.33 99 1009.5
20260509184904 49 201 5.2 9.6 0.00 0.32 0.32 99 1009.7
20260509183859 49 57 1.7 6.1 0.02 0.32 0.32 99 1009.5
20260509182855 49 138 0.9 4.3 0.02 0.31 0.31 99 1009.4
20260509181850 49 204 7.0 8.7 0.00 0.31 0.31 99 1009.5
20260509180850 49 150 4.3 13.9 0.02 0.31 0.31 99 1009.2
20260509175849 49 212 7.0 9.6 0.00 0.30 0.30 99 1009.2
20260509174847 49 170 3.5 5.2 0.00 0.30 0.30 99 1009.2
20260509173845 49 320 1.7 9.6 0.00 0.30 0.30 99 1009.2
20260509172843 49 168 5.2 8.7 0.02 0.30 0.30 99 1009.2
20260509171841 49 224 8.7 11.3 0.00 0.30 0.30 99 1009.2
20260509170839 48 212 5.2 13.9 0.09 0.30 0.30 99 1009.1
20260509165835 48 228 7.0 10.4 0.05 0.28 0.28 99 1009.4
20260509164832 48 222 6.1 11.3 0.02 0.27 0.27 99 1009.4
20260509163831 48 117 1.7 6.1 0.02 0.27 0.27 99 1009.5
20260509162827 48 205 5.2 5.2 0.02 0.26 0.26 99 1009.7
20260509161822 48 229 3.5 5.2 0.02 0.26 0.26 99 1009.5
20260509160820 48 213 1.7 7.8 0.02 0.26 0.26 99 1009.5
20260509155817 48 204 2.6 8.7 0.00 0.25 0.25 99 1009.7
20260509154816 48 89 2.6 3.5 0.02 0.25 0.25 99 1009.6
20260509153816 48 240 2.6 4.3 0.00 0.25 0.25 99 1009.8
20260509152815 48 133 1.7 2.6 0.02 0.25 0.25 99 1009.8
20260509151815 48 173 1.7 3.5 0.02 0.24 0.24 99 1009.9
20260509150809 48 99 1.7 5.2 0.02 0.24 0.24 99 1009.8
20260509145809 48 240 1.7 3.5 0.02 0.23 0.23 99 1009.7
20260509144806 48 326 0.9 4.3 0.02 0.23 0.23 99 1010.0
20260509143800 48 147 1.7 5.2 0.02 0.22 0.22 99 1010.1
20260509142759 48 24 1.7 2.6 0.02 0.22 0.22 99 1010.3
20260509141756 48 127 1.7 5.2 0.02 0.22 0.22 99 1010.4
20260509140756 48 218 4.3 6.1 0.02 0.21 0.21 99 1010.4
20260509135751 48 247 2.6 8.7 0.02 0.21 0.21 99 1010.5
20260509134751 48 254 3.5 4.3 0.05 0.20 0.20 99 1010.4
20260509133746 48 206 5.2 6.1 0.02 0.20 0.20 99 1010.5
20260509132741 48 318 0.9 3.5 0.02 0.19 0.19 99 1010.4
20260509131736 48 328 0.9 2.6 0.00 0.19 0.19 99 1010.1
20260509130734 47 22 0.9 3.5 0.02 0.19 0.19 99 1010.1
20260509125733 47 40 1.7 2.6 0.00 0.18 0.18 99 1010.0
20260509124732 47 50 1.7 2.6 0.02 0.18 0.18 99 1010.1
20260509123727 47 29 1.7 3.5 0.00 0.18 0.18 99 1010.3
20260509122725 47 14 1.7 3.5 0.00 0.18 0.18 99 1010.4
20260509121724 46 33 2.6 3.5 0.02 0.18 0.18 99 1010.6
20260509120720 46 354 0.0 2.6 0.00 0.18 0.18 99 1010.5
20260509115721 46 17 0.9 2.6 0.00 0.18 0.18 99 1010.5
20260509114716 46 32 1.7 3.5 0.02 0.18 0.18 99 1010.8
20260509113713 46 347 1.7 2.6 0.00 0.17 0.17 99 1010.6
20260509112712 46 10 1.7 3.5 0.00 0.17 0.17 99 1010.7
20260509111712 46 10 2.6 2.6 0.00 0.17 0.17 99 1010.7
20260509110712 45 88 1.7 3.5 0.00 0.17 0.17 99 1010.5
20260509105707 45 34 0.9 3.5 0.00 0.17 0.17 99 1010.7
20260509104707 45 18 2.6 3.5 0.00 0.17 0.17 99 1010.5
20260509103701 45 11 0.9 2.6 0.00 0.17 0.17 99 1010.6
20260509102657 45 44 1.7 2.6 0.00 0.17 0.17 99 1010.7
20260509101655 45 4 1.7 3.5 0.00 0.17 0.17 99 1010.7
20260509100650 45 12 2.6 3.5 0.02 0.17 0.17 99 1010.7
20260509095649 45 7 2.6 3.5 0.02 0.17 0.17 99 1010.7
20260509094648 45 23 2.6 3.5 0.00 0.17 0.17 99 1010.4
20260509093644 45 63 1.7 2.6 0.00 0.17 0.17 99 1010.7
20260509092644 45 80 1.7 3.5 0.02 0.17 0.17 99 1010.8
20260509091641 45 35 1.7 2.6 0.07 0.16 0.16 99 1010.9
20260509090640 45 29 1.7 2.6 0.12 0.15 0.15 99 1010.8
20260509085641 45 330 0.9 2.6 0.00 0.13 0.13 99 1010.8
20260509084640 45 16 1.7 2.6 0.00 0.13 0.13 99 1010.7
20260509083640 45 33 0.0 1.7 0.00 0.13 0.13 99 1010.7
20260509082639 45 35 1.7 2.6 0.00 0.13 0.13 99 1010.9
20260509081639 45 5 0.9 2.6 0.00 0.13 0.13 99 1010.9
20260509080634 45 35 0.0 2.6 0.02 0.13 0.13 99 1011.0
20260509075630 45 61 1.7 2.6 0.02 0.13 0.13 99 1011.2
20260509074630 45 27 1.7 2.6 0.02 0.12 0.12 99 1011.4
20260509073629 45 10 1.7 2.6 0.05 0.12 0.12 99 1011.3
20260509072628 45 0 1.7 2.6 0.05 0.11 0.11 99 1011.5
20260509071627 45 7 1.7 2.6 0.05 0.10 0.10 99 1011.5
20260509070622 45 41 0.9 2.6 0.05 0.09 0.09 99 1011.7
20260509065619 45 91 1.7 2.6 0.02 0.08 0.08 99 1011.7
20260509064619 45 283 1.7 2.6 0.07 0.08 0.08 99 1012.0
20260509063619 45 247 1.7 2.6 0.05 0.07 0.07 99 1012.1
20260509062619 45 220 1.7 2.6 0.05 0.06 0.06 99 1011.9
20260509061619 45 93 0.9 3.5 0.05 0.05 0.05 99 1011.9
20260509060614 45 116 1.7 3.5 0.09 0.04 0.04 99 1011.9
20260509055611 45 154 1.7 2.6 0.07 0.03 0.03 99 1011.7
20260509054610 45 115 2.6 2.6 0.02 0.02 0.02 99 1011.9
20260509053606 45 99 1.7 2.6 0.02 0.02 0.02 99 1012.3
20260509052601 46 178 1.7 2.6 0.00 0.01 0.01 99 1012.3
20260509051556 46 107 0.0 1.7 0.02 0.01 0.01 99 1012.1
20260509050555 46 135 0.0 2.6 0.02 0.01 0.01 99 1012.1
20260509045550 46 112 0.9 1.7 0.00 0.00 0.00 99 1011.9
20260509044550 46 183 0.9 1.7 0.00 0.00 0.00 98 1011.8
20260509043549 46 180 0.9 2.6 0.00 0.00 0.00 98 1012.1
20260509042547 46 196 0.9 2.6 0.00 0.00 0.00 97 1011.7
20260509041546 46 203 1.7 4.3 0.00 0.00 0.00 97 1011.6
20260509040542 46 180 4.3 5.2 0.00 0.00 0.00 96 1011.9
20260509035541 46 192 1.7 4.3 0.00 0.10 0.10 96 1012.3
20260509034536 46 215 4.3 7.8 0.00 0.10 0.10 96 1012.3
20260509033535 45 163 1.7 1.7 0.00 0.10 0.10 97 1012.4
20260509032535 45 138 1.7 1.7 0.00 0.10 0.10 97 1012.0
20260509031535 45 169 1.7 2.6 0.00 0.10 0.10 96 1012.1
20260509030531 45 136 0.9 1.7 0.00 0.10 0.10 95 1012.0
20260509025529 46 212 1.7 3.5 0.00 0.10 0.10 94 1011.9
20260509024526 46 119 1.7 4.3 0.00 0.10 0.10 94 1012.1
20260509023526 46 179 2.6 3.5 0.00 0.10 0.10 94 1012.1
20260509022525 46 202 3.5 6.1 0.00 0.10 0.10 93 1012.1
20260509021520 46 204 2.6 3.5 0.00 0.10 0.10 94 1011.9
20260509020515 46 96 1.7 3.5 0.00 0.10 0.10 94 1012.0
20260509015511 46 152 1.7 2.6 0.00 0.10 0.10 94 1012.0
20260509014510 46 186 1.7 2.6 0.00 0.10 0.10 93 1012.0
20260509013509 46 152 1.7 3.5 0.00 0.10 0.10 93 1012.0
20260509012508 46 118 1.7 2.6 0.00 0.10 0.10 93 1012.1
20260509011502 46 134 3.5 3.5 0.00 0.10 0.10 92 1011.7
20260509010457 47 104 0.9 4.3 0.00 0.10 0.10 91 1011.9
20260509005452 47 179 3.5 4.3 0.00 0.10 0.10 91 1011.8
20260509004448 47 142 0.9 3.5 0.00 0.10 0.10 90 1011.5
20260509003444 47 200 2.6 4.3 0.00 0.10 0.10 90 1011.6
20260509002444 48 92 0.9 3.5 0.00 0.10 0.10 89 1011.3
20260509001443 48 113 0.9 1.7 0.00 0.10 0.10 88 1011.3
20260509000440 48 190 1.7 3.5 0.00 0.10 0.10 87 1011.1
20260508235438 49 167 1.7 2.6 0.00 0.10 0.10 85 1010.9
20260508234437 50 153 1.7 3.5 0.00 0.10 0.10 83 1010.9
20260508233434 50 131 1.7 7.8 0.00 0.10 0.10 81 1011.2
20260508232433 50 154 0.0 1.7 0.00 0.10 0.10 81 1011.0
20260508231433 50 157 0.9 3.5 0.00 0.10 0.10 81 1011.0
20260508230432 50 196 5.2 5.2 0.00 0.10 0.10 80 1011.0
20260508225432 51 133 0.9 2.6 0.00 0.10 0.10 80 1010.8
20260508224427 52 182 1.7 4.3 0.00 0.10 0.10 79 1010.6
20260508223422 53 84 2.6 2.6 0.00 0.10 0.10 77 1010.9
20260508222422 51 207 2.6 4.3 0.00 0.10 0.10 78 1010.7
20260508221420 51 184 3.5 5.2 0.00 0.10 0.10 77 1010.9
20260508220419 52 135 5.2 6.1 0.00 0.10 0.10 73 1010.7
20260508215418 52 137 0.9 4.3 0.00 0.10 0.10 78 1011.0
20260508214419 53 186 4.3 4.3 0.00 0.10 0.10 75 1010.9
20260508213418 52 154 1.7 4.3 0.00 0.10 0.10 72 1010.8
20260508212416 52 134 2.6 3.5 0.00 0.10 0.10 77 1011.1